User: anonymous   Login
Location: G�yn�k
(36.6721°N, 30.5542°E)
Time: 03:04:24
(UTC+00:00)
Language:

BREEZE-M DEB (TANK) - Orbit

View from above orbital plane
View from above orbital plane
View from above satellite
View from above satellite

Ground track
Ground track

The orbit data is extracted from the following two-line orbital elements,

1 39010U 12065C   20221.81542981 +.00000579 +00000-0 +12674-3 0  9996
2 39010 049.6256 126.5553 4663532 146.2533 254.9341 06.16254896170965
Epoch (UTC): 08 August 2020 19:34:13
Eccentricity: 0.4663532
inclination: 49.6256°
perigee height: 328 km
apogee height: 12049 km
right ascension of ascending node: 126.5553°
argument of perigee: 146.2533°
revolutions per day: 6.16254896
mean anomaly at epoch: 254.9341°
orbit number at epoch: 17096

The dashed part of the orbit path shows where the satellite is in the earth's shadow,  

DLR